Warning: fopen(/var/www/metroair/shared/private/wxdata/metar/AVWX/metar_KRST): failed to open stream: Permission denied in /var/www/metroair/shared/private/library/orig_library/lib_airport.php on line 346

Warning: fwrite() expects parameter 1 to be resource, boolean given in /var/www/metroair/shared/private/library/orig_library/lib_airport.php on line 347

Warning: fclose() expects parameter 1 to be resource, boolean given in /var/www/metroair/shared/private/library/orig_library/lib_airport.php on line 348

Warning: fopen(/var/www/metroair/shared/private/wxdata/TAF/AVWX/taf_KRST): failed to open stream: Permission denied in /var/www/metroair/shared/private/library/orig_library/lib_airport.php on line 533

Warning: fwrite() expects parameter 1 to be resource, boolean given in /var/www/metroair/shared/private/library/orig_library/lib_airport.php on line 534

Warning: fclose() expects parameter 1 to be resource, boolean given in /var/www/metroair/shared/private/library/orig_library/lib_airport.php on line 535

MET2388 - Rochester to Kansas City

Bombardier Dash-8-Q200
838AH
1 hr 15 mins
294 nm
Scheduled - Daily

Bid/PiRep Status

Bid was submitted on Dec 16 2016.

PiRep # 74389: Approved by Dave Nichols on December 20th, 2016 5:17 UTC

Departure

Departing from
Rochester (RST)
Departure gate
A4
Scheduled Departure
GMT 2135
Local 1535
METAR KRST 260454Z AUTO 20015KT 10SM BKN065 OVC080 M06/M09 A2987 RMK AO2 SLP138 T10611094
TAF KRST 252325Z 2600/2624 23011KT P6SM SCT060 BKN090
  • No charts available

Arrival

Arriving at
Kansas City (MCI)
Arrival gate
Scheduled Arrival
GMT 2250
Local 1650
METAR KMCI 260453Z 18009KT 10SM CLR M02/M11 A3000 RMK AO2 SLP169 T10221106
TAF KMCI 252320Z 2600/2624 20009KT P6SM SCT200 FM261500 22010KT P6SM OVC070

Route Map

Planning Resources

KRST LMN BSQ BSQ4
RST MCW J25 DSM LMN BQS4
KRST ZUTEL DSM STJ MAXEE KMCI
MCW DSM LMN BQS4
KRST DSM KMCI
Route:
OFP Layout:
Units:
Detailed Navlog:
ETOPS Planning:
Plan Stepclimbs:
Runway Analysis:
Include NOTAMS:
FIR NOTAMS:
Flight Maps:

Return Flights

MET2385
Bombardier Dash-8-Q200
1500 GMT
MET2387
Bombardier Dash-8-Q200
2000 GMT

Popularity

Hub Current Bids PiReps this month Total PiReps
KMCI 0 0 4
KLAX 0 0 0
KBOS 0 0 0